www.pogodaiklimat.ru

Погода и климат >> Архив погоды >> Великобритания >> Сеннибридж


ПОГОДА в Сеннибридже

  • Прогноз погоды в Сеннибридже
  • Монитор погоды в Сеннибридже

АРХИВ ПОГОДЫ в Сеннибридже

Время (UTC), дата Ветер
(напр.,м/с)
 
Видим.   Явления Облачность Т
(С)
Тd
(С)
f
(%)
Тe
(С)
Тes
(С)
Комфортность P
(гПа)
Po
(гПа)
Тmin
(С)
Tmax
(С)
R
(мм)
R24
(мм)
S
(см)
22 11.06 СВ 4 22 км дождь н/о +7.2 +6.8 97 +4 +4 1016.8 979.5
23 11.06 СВ 4 17 км слаб. дождь н/о +7.0 +6.7 98 +3 +3 1016.4 979.1
00 12.06 СВ 3 11 км дождь н/о +6.9 +6.6 98 +4 +4 1016.0 978.7 4
01 12.06 С 2 10 км слаб. дождь н/о +7.0 +6.7 98 +5 +5 1015.3 978.0
02 12.06 С 2 13 км дождь н/о +6.9 +6.7 99 +4 +4 1014.7 977.5
03 12.06 С 2 7000 м дождь н/о +6.9 +6.7 99 +4 +4 1014.3 977.1
04 12.06 С 2 7000 м дождь н/о +6.9 +6.7 99 +4 +4 1013.9 976.7
05 12.06 С 3 9000 м дождь н/о +6.8 +6.6 99 +3 +3 1013.6 976.4
06 12.06 С 3 7000 м дождь н/о +6.8 +6.6 99 +4 +4 1013.6 976.4 +6.8 13
07 12.06 С 3 17 км слаб. дождь н/о +7.1 +6.9 99 +4 +4 1012.8 975.6
08 12.06 С 4 4700 м в посл. час дождь н/о +8.0 +7.5 97 +5 +5 1012.6 975.5
09 12.06 СВ 3 6000 м дымка н/о +8.8 +8.4 97 +6 +6 1012.0 975.1
10 12.06 СВ 3 11 км н/о +9.7 +8.6 93 +7 +7 1011.9 975.1
11 12.06 СВ 3 45 км н/о +10.3 +8.7 90 +8 +8 1011.8 975.1
12 12.06 С 2 45 км н/о +10.5 +8.5 87 +9 +9 1011.1 974.4 1
13 12.06 С 2 45 км н/о +10.5 +8.7 89 +9 +9 1011.1 974.5
14 12.06 С 2 50 км н/о +11.3 +9.2 87 +10 +10 1010.8 974.3
15 12.06 СВ 1 24 км в посл. час дождь н/о +11.2 +10.3 94 +11 +11 1010.1 973.6
16 12.06 С 1 50 км н/о +11.6 +9.8 89 +11 +11 1009.8 973.3
17 12.06 СВ 1 50 км н/о +11.8 +9.2 84 +12 +12 1009.4 973.0
18 12.06 С 1 50 км в посл. час дождь н/о +11.0 +9.7 92 +11 +11 1009.0 972.5 +12.1 1
19 12.06 ЮЗ 1 4300 м слаб. ливневой дождь н/о +10.7 +10.1 96 +11 +11 1008.6 972.0
20 12.06 штиль 0 29 км дождь н/о +10.5 +10.1 97 +10 +10 1008.1 971.6
21 12.06 ЮЗ 1 7000 м дождь н/о +10.3 +10.0 98 +10 +10 1008.2 971.6
22 12.06 ЮЗ 2 11 км дождь н/о +10.2 +10.0 99 +9 +9 1007.8 971.2
23 12.06 ЮЗ 2 8000 м дождь н/о +10.0 +9.8 99 +8 +8 1007.0 970.4
00 13.06 З 2 5000 м сильн. дождь н/о +9.8 +9.6 99 +8 +8 1006.4 969.8 9
01 13.06 З 2 9000 м дождь н/о +9.7 +9.6 99 +8 +8 1005.6 969.1
02 13.06 ЮЗ 2 7000 м сильн. дождь н/о +9.6 +9.5 99 +8 +8 1004.7 968.2
03 13.06 З 1 6000 м сильн. дождь н/о +9.6 +9.5 99 +9 +9 1004.1 967.6
04 13.06 З 2 7000 м дождь н/о +9.7 +9.6 99 +8 +8 1003.9 967.4
05 13.06 ЮЗ 2 9000 м дождь н/о +9.7 +9.6 99 +8 +8 1003.7 967.2
06 13.06 ЮЗ 2 11 км дождь н/о +9.9 +9.8 99 +9 +9 1003.3 966.8 +9.6 24
07 13.06 ЮЗ 3 25 км слаб. дождь н/о +10.3 +10.2 99 +8 +8 1003.0 966.6
08 13.06 З 2 6000 м дождь н/о +10.5 +10.4 99 +9 +9 1003.1 966.7
09 13.06 СВ 3 45 км слаб. дождь н/о +11.2 +10.7 97 +9 +9 1003.1 966.8
10 13.06 СВ 3 30 км в посл. час дождь н/о +11.4 +10.0 91 +9 +9 1003.3 967.0
11 13.06 С 2 29 км слаб. морось с дождем н/о +11.4 +9.1 86 +10 +10 1003.6 967.3
12 13.06 СВ 3 5000 м дождь н/о +11.0 +9.9 93 +9 +9 1003.8 967.5 3
13 13.06 С 1 50 км в посл. час дождь н/о +13.2 +10.1 81 +13 +13 1003.4 967.4
14 13.06 С 1 3900 м слаб. морось с дождем н/о +11.9 +10.6 92 +12 +12 1004.2 967.9
15 13.06 СЗ 2 40 км в посл. час дождь н/о +11.6 +9.2 85 +11 +11 1004.5 968.2
16 13.06 СЗ 2 45 км в посл. час дождь н/о +13.1 +8.7 75 +13 +13 1004.6 968.5
17 13.06 СЗ 1 30 км н/о +12.0 +8.4 79 +12 +12 1004.9 968.7
18 13.06 СЗ 1 40 км н/о +10.7 +7.7 82 +10 +10 1005.5 969.0 +13.9 4
19 13.06 СЗ 1 50 км н/о +9.7 +7.4 86 +10 +10 1006.3 969.7
20 13.06 З 3 50 км н/о +9.3 +7.5 89 +7 +7 1006.8 970.1
21 13.06 ЮЗ 3 40 км слаб. ливневой дождь н/о +9.0 +7.6 91 +7 +7 1007.4 970.6
22 13.06 ЮЗ 3 30 км слаб. дождь н/о +8.5 +7.8 95 +6 +6 1007.4 970.6
23 13.06 ЮЗ 3 14 км слаб. морось н/о +8.5 +8.1 97 +6 +6 1007.2 970.4
00 14.06 Ю 3 8000 м слаб. дождь н/о +8.7 +8.4 98 +6 +6 1006.8 970.0 0.2
01 14.06 Ю 3 11 км слаб. дождь н/о +9.0 +8.7 98 +7 +7 1006.1 969.4
02 14.06 Ю 4 8000 м дождь н/о +9.3 +8.9 97 +6 +6 1005.6 969.0
03 14.06 ЮЗ 2 3000 м сильн. дождь н/о +9.3 +9.1 99 +7 +7 1005.5 968.9
04 14.06 З 1 11 км дождь н/о +9.0 +8.8 99 +9 +9 1005.8 969.2
05 14.06 Ю 1 6000 м дождь н/о +8.4 +8.1 98 +7 +7 1006.3 969.5
06 14.06 ЮЗ 4 28 км слаб. морось н/о +8.7 +8.4 98 +6 +6 1006.2 969.5 +8.3 12
07 14.06 ЮЗ 3 50 км в посл. час дождь н/о +8.7 +8.5 99 +6 +6 1006.7 970.0
08 14.06 З 3 20 км в посл. час дождь н/о +8.7 +8.1 96 +6 +6 1007.3 970.6
09 14.06 ЮЗ 4 30 км н/о +9.6 +8.1 90 +7 +7 1007.8 971.2
10 14.06 ЮЗ 3 30 км н/о +12.1 +10.0 87 +10 +10 1007.5 971.2
11 14.06 ЮЗ 5 29 км н/о +12.1 +8.2 77 +10 +10 1007.6 971.3
12 14.06 ЮЗ 5 50 км н/о +12.6 +8.1 74 +10 +10 1007.6 971.3 0.2
13 14.06 ЮЗ 4 29 км н/о +12.5 +8.3 76 +11 +11 1007.8 971.5
14 14.06 З 2 45 км н/о +12.2 +9.2 82 +11 +11 1008.1 971.8
15 14.06 ЮЗ 5 29 км в посл. час дождь н/о +13.0 +8.8 76 +11 +11 1008.1 971.9
16 14.06 ЮЗ 5 30 км н/о +13.2 +8.9 75 +11 +11 1008.2 972.0
17 14.06 ЮЗ 6 45 км н/о +11.9 +8.5 80 +9 +9 1008.5 972.2
18 14.06 ЮЗ 6 40 км в посл. час дождь н/о +11.3 +7.8 79 +8 +8 1009.0 972.5 +13.4 0.2
19 14.06 ЮЗ 4 30 км н/о +10.9 +7.8 81 +8 +8 1009.2 972.6
20 14.06 Ю 2 28 км н/о +10.5 +7.0 79 +9 +9 1009.4 972.8
21 14.06 Ю 3 5000 м ливневой дождь н/о +9.7 +8.7 93 +7 +7 1009.7 972.9
22 14.06 Ю 4 19 км в посл. час дождь н/о +10.0 +8.9 93 +7 +7 1009.4 972.7
23 14.06 Ю 3 26 км слаб. ливневой дождь н/о +9.3 +8.3 93 +7 +7 1009.5 972.7
00 15.06 Ю 5 21 км в посл. час дождь н/о +9.4 +8.0 91 +6 +6 1009.3 972.6 1
01 15.06 Ю 4 22 км н/о +9.1 +7.7 91 +6 +6 1009.1 972.4
02 15.06 Ю 5 35 км н/о +9.3 +7.2 87 +6 +6 1008.7 971.9
03 15.06 Ю 5 30 км н/о +9.4 +7.4 87 +6 +6 1008.6 971.8
04 15.06 Ю 5 9000 м н/о +9.6 +7.9 89 +6 +6 1008.2 971.5
05 15.06 Ю 6 7000 м слаб. ливневой дождь н/о +9.6 +8.7 94 +6 +6 1007.9 971.2
06 15.06 Ю 7 7000 м слаб. дождь н/о +9.8 +9.2 96 +6 +6 1007.8 971.2 +8.9 1
07 15.06 Ю 5 4400 м дождь н/о +10.2 +9.5 95 +7 +7 1008.3 971.7
08 15.06 ЮЗ 5 20 км в посл. час дождь н/о +9.8 +9.3 97 +7 +7 1009.3 972.6
09 15.06 ЮЗ 5 21 км н/о +10.9 +9.5 91 +8 +8 1009.5 972.9
10 15.06 ЮЗ 5 30 км н/о +12.4 +8.9 79 +10 +10 1009.3 972.9
11 15.06 ЮЗ 3 25 км н/о +12.1 +8.0 76 +11 +11 1010.0 973.6
12 15.06 ЮЗ 5 35 км н/о +13.9 +8.3 69 +12 +12 1010.0 973.8 1
13 15.06 ЮЗ 6 35 км н/о +13.5 +8.6 72 +11 +11 1010.4 974.2
14 15.06 З 5 30 км в посл. час дождь н/о +12.2 +9.1 81 +10 +10 1010.9 974.4
15 15.06 ЮЗ 6 50 км в посл. час дождь н/о +13.5 +7.6 67 +11 +11 1010.8 974.5
16 15.06 ЮЗ 6 40 км н/о +13.5 +6.9 64 +11 +11 1010.6 974.4
17 15.06 ЮЗ 5 50 км ливневой дождь н/о +11.8 +7.5 75 +9 +9 1011.3 974.8
18 15.06 ЮЗ 7 35 км в посл. час дождь н/о +12.0 +6.6 70 +9 +9 1011.6 975.1 +14.1 1
19 15.06 ЮЗ 6 50 км н/о +11.1 +5.9 70 +8 +8 1011.9 975.3
20 15.06 ЮЗ 5 50 км н/о +9.8 +6.3 79 +7 +7 1012.2 975.4
21 15.06 Ю 3 40 км н/о +9.2 +6.5 83 +7 +7 1012.7 975.8
22 15.06 Ю 4 50 км н/о +9.6 +7.0 84 +7 +7 1013.0 976.1
23 15.06 ЮЗ 5 45 км в посл. час дождь н/о +9.2 +7.1 87 +6 +6 1012.9 976.1
00 16.06 Ю 3 50 км н/о +8.7 +7.1 90 +6 +6 1013.3 976.3 0.0
01 16.06 ЮЗ 4 20 км н/о +9.2 +8.4 95 +6 +6 1012.9 976.0
02 16.06 Ю 3 27 км в посл. час дождь н/о +9.4 +8.4 93 +7 +7 1012.8 975.9
03 16.06 Ю 2 22 км слаб. ливневой дождь н/о +9.5 +8.5 93 +8 +8 1012.6 975.8
04 16.06 Ю 3 30 км в посл. час дождь н/о +9.6 +8.6 93 +7 +7 1012.4 975.6
05 16.06 Ю 3 30 км слаб. морось с дождем н/о +10.0 +8.9 93 +8 +8 1012.4 975.7
06 16.06 Ю 3 6000 м дождь н/о +9.9 +8.9 93 +8 +8 1012.3 975.6 +8.3 0.8
07 16.06 Ю 6 20 км в посл. час дождь н/о +10.1 +9.3 95 +7 +7 1012.5 975.7
08 16.06 ЮЗ 6 9000 м в посл. час дождь н/о +11.7 +10.6 93 +9 +9 1012.6 976.0
09 16.06 ЮЗ 7 6000 м ливневой дождь н/о +12.1 +11.1 94 +9 +9 1012.5 976.0
10 16.06 ЮЗ 8 7000 м ливневой дождь н/о +12.0 +10.4 90 +9 +9 1012.8 976.3
11 16.06 ЮЗ 8 50 км в посл. час дождь н/о +14.3 +13.3 94 +12 +12 1012.8 976.6
12 16.06 ЮЗ 8
{16}
27 км н/о +13.1 +10.0 81 +10 +10 1013.4 977.0 2
13 16.06 ЮЗ 8
{13}
35 км н/о +14.1 +9.9 76 +12 +12 1013.9 977.5
14 16.06 ЮЗ 10
{14}
25 км н/о +13.4 +9.6 78 +10 +10 1014.1 977.7
15 16.06 ЮЗ 5
{13}
6000 м дождь н/о +11.5 +10.6 94 +9 +9 1014.5 977.9
16 16.06 ЮЗ 8
{13}
8000 м дождь н/о +12.5 +11.7 95 +9 +9 1014.2 977.7
17 16.06 ЮЗ 8
{13}
35 км в посл. час дождь н/о +12.5 +11.2 92 +9 +9 1014.0 977.5
18 16.06 ЮЗ 8 8000 м морось н/о +12.1 +11.3 95 +9 +9 1014.0 977.5 +15.6 3
19 16.06 ЮЗ 9
{13}
3300 м слаб. морось с дождем н/о +11.7 +10.9 95 +8 +8 1014.4 977.8
20 16.06 ЮЗ 8
{13}
26 км в посл. час дождь н/о +11.5 +10.6 94 +8 +8 1014.3 977.7
21 16.06 ЮЗ 7 4100 м сильн. морось н/о +11.5 +10.7 95 +8 +8 1014.6 977.9
22 16.06 ЮЗ 9
{14}
35 км в посл. час дождь н/о +11.3 +10.0 92 +7 +7 1014.7 978.0
23 16.06 ЮЗ 6 35 км н/о +11.5 +10.1 91 +8 +8 1014.5 977.8
00 17.06 ЮЗ 9
{13}
30 км н/о +11.9 +10.1 89 +8 +8 1014.2 977.6 1
01 17.06 ЮЗ 9
{13}
27 км н/о +11.9 +10.4 91 +8 +8 1014.2 977.6
02 17.06 ЮЗ 10
{14}
17 км н/о +11.8 +10.5 92 +8 +8 1014.0 977.4
03 17.06 ЮЗ 9-14
{14}
4100 м слаб. морось н/о +11.5 +10.9 96 +8 +8 1014.0 977.4
04 17.06 ЮЗ 9-14
{14}
4000 м ливневой дождь н/о +11.7 +10.9 95 +8 +8 1014.0 977.4
05 17.06 ЮЗ 7
{13}
2800 м дождь н/о +11.6 +11.3 98 +8 +8 1014.2 977.6
06 17.06 ЮЗ 7 3100 м сильн. морось н/о +11.8 +11.6 99 +9 +9 1014.2 977.6 +11.2 3
07 17.06 ЮЗ 8 4700 м слаб. морось н/о +12.0 +11.7 98 +9 +9 1014.7 978.1
08 17.06 ЮЗ 4 2900 м сильн. морось н/о +11.0 +10.7 98 +8 +8 1015.6 978.8
09 17.06 ЮЗ 5 2400 м морось н/о +11.6 +11.3 98 +9 +9 1015.6 978.9
10 17.06 ЮЗ 6 3600 м дождь н/о +12.6 +12.3 98 +10 +10 1015.4 978.9
11 17.06 ЮЗ 8 6000 м в посл. час дождь н/о +12.9 +12.2 96 +10 +10 1015.6 979.1
12 17.06 ЮЗ 9-14
{14}
8000 м в посл. час дождь н/о +13.0 +12.4 96 +10 +10 1015.7 979.2 5
13 17.06 ЮЗ 8 13 км в посл. час дождь н/о +13.0 +12.1 94 +10 +10 1015.7 979.2
14 17.06 ЮЗ 8 40 км в посл. час дождь н/о +14.5 +12.0 85 +12 +12 1015.4 979.1
15 17.06 ЮЗ 8 5000 м дым н/о +13.7 +11.4 86 +11 +11 1015.5 979.0
16 17.06 ЮЗ 7 26 км в посл. час дождь н/о +13.8 +11.4 85 +11 +11 1015.4 979.0
17 17.06 ЮЗ 5 11 км в посл. час дождь н/о +13.2 +11.8 91 +11 +11 1015.5 979.0
18 17.06 ЮЗ 6 21 км в посл. час дождь н/о +12.5 +11.6 94 +10 +10 1015.6 979.0 +15.2 6
19 17.06 ЮЗ 5 5000 м слаб. морось с дождем н/о +12.2 +11.3 94 +10 +10 1015.5 978.9
20 17.06 ЮЗ 3 40 км в посл. час дождь н/о +11.2 +10.7 97 +9 +9 1015.9 979.1
21 17.06 ЮЗ 3 26 км н/о +11.3 +10.9 97 +9 +9 1016.2 979.4
22 17.06 Ю 3 26 км н/о +11.2 +10.7 97 +9 +9 1016.2 979.5
23 17.06 Ю 3 19 км н/о +11.1 +10.4 95 +9 +9 1016.2 979.4
00 18.06 Ю 4 35 км н/о +11.2 +10.3 94 +9 +9 1016.0 979.3 0.2
01 18.06 ЮЗ 3 25 км н/о +11.2 +10.6 96 +9 +9 1015.8 979.0
02 18.06 ЮЗ 3 16 км н/о +11.4 +10.8 96 +9 +9 1015.5 978.8
03 18.06 ЮЗ 3 15 км н/о +11.3 +10.8 97 +9 +9 1015.1 978.4
04 18.06 Ю 3 12 км н/о +11.1 +10.8 98 +9 +9 1014.9 978.2
05 18.06 Ю 3 17 км н/о +11.3 +10.8 97 +9 +9 1014.8 978.1
06 18.06 ЮЗ 2 29 км н/о +11.8 +11.0 95 +11 +11 1014.8 978.1 +10.9 0.2
07 18.06 З 2 24 км в посл. час дождь н/о +12.0 +11.3 95 +11 +11 1014.6 978.0
08 18.06 ЮЗ 2 40 км н/о +13.1 +11.4 89 +13 +13 1014.4 978.0
09 18.06 ЮЗ 2 25 км н/о +13.9 +10.8 82 +13 +13 1014.4 978.0
10 18.06 ЮЗ 3 35 км н/о +14.0 +10.6 80 +13 +13 1014.2 977.8
11 18.06 З 2 35 км н/о +14.8 +11.1 78 +14 +14 1013.9 977.6
12 18.06 ЮЗ 2 30 км н/о +15.3 +10.7 74 +15 +15 1013.4 977.2 0.0
13 18.06 ЮЗ 2 35 км н/о +15.4 +10.8 74 +16 +16 1013.0 976.8
14 18.06 З 2 17 км н/о +15.1 +11.5 79 +15 +15 1012.9 976.7
15 18.06 З 2 15 км слаб. дождь н/о +15.2 +12.1 82 +15 +15 1012.3 976.2
17 18.06 З 3 40 км слаб. дождь н/о +14.4 +11.7 84 +14 +14 1011.9 975.7
18 18.06 ЮЗ 4 17 км слаб. дождь н/о +13.4 +11.9 91 +12 +12 1012.0 975.6 +16.4 0.2
19 18.06 З 3 14 км в посл. час дождь н/о +13.1 +12.0 93 +12 +12 1011.9 975.5
20 18.06 З 1 22 км н/о +12.8 +11.7 93 +13 +13 1011.7 975.3
21 18.06 Ю 1 12 км слаб. ливневой дождь н/о +12.5 +11.6 94 +12 +12 1011.8 975.4
22 18.06 ЮЗ 1 15 км слаб. дождь н/о +12.2 +11.5 95 +13 +13 1011.6 975.2

 

Местоположение метеостанции Сеннибридж (Великобритания): широта 52.07 долгота -3.62 высота над уровнем моря 307 м.

В архиве по умолчанию представлена погода в Сеннибридже за последнюю неделю. Архивные данные за месяц целиком и за предыдущие месяцы, начиная с января 2011 года, Вы можете получить, выбрав интересующий диапазон дат из раскрывающегося списка и нажав кнопку "Ввод!".


*Определитесь, кто Вы:
робот инопланетянин человек

Внимание! Время в таблицах - всемирное. Для получения местного времени необходимо прибавить поправку, которая равна 0 ч.

Смотрите также архив погоды в соседних городах и на ближайших метеорологических станциях:

Погода в Троскоеде (Великобритания) (38 км)
Погода в Шобдоне (Великобритания) (54 км)
Погода в Хирфорде (Великобритания) (56 км)
Погода в Мамблсе (Великобритания) (61 км)
Погода в Пембри Сэндс (Великобритания) (65 км)
Погода в Аберпорте (Великобритания) (65 км)
Погода в Сейнт Атан (Великобритания) (76 км)
Погода на Озере Вирнви (Великобритания) (76 км)
Погода в Бала (Великобритания) (92 км)
Погода в Филтоне (Великобритания) (94 км)

Пояснения к столбцам:

Ветер - указаны скорость ветра в м/с - средняя за 10 мин, порывы в срок и между сроками (в фигурных скобках) и направление, откуда дует ветер: С - северный, СВ - северо-восточный, В - восточный, ЮВ - юго-восточный, Ю - южный, ЮЗ - юго-западный, З - западный, СЗ - северо-западный.
Видимость - горизонтальная дальность видимости в метрах или километрах. При видимости от 1 до 10 км при отсутствии осадков обычно наблюдается дымка, при ухудшении видимости до 1 км и менее - туман. В сухую погоду видимость может ухудшаться дымом, пылью или мглою.
Явления - указаны атмосферные явления, наблюдавшиеся в срок или в последний час перед сроком; фигурными скобками обозначены явления, наблюдавшиеся между сроками (за 1-3 часа до срока); квадратными скобками обозначены град или гололедные отложения с указанием их диаметра в мм.
Облачность - указаны через наклонную черту общая и нижняя облачность в баллах и высота нижней границы облаков в метрах; квадратными скобками обозначены формы облаков: Ci - перистые, Cs - перисто-слоистые, Cc - перисто-кучевые, Ac - высококучевые, As - высокослоистые, Sc - слоисто-кучевые, Ns - слоисто-дождевые, Cu - кучевые, Cb - кучево-дождевые. Подробнее классификацию облаков см. в Атласе облаков (PDF).
T - Температура воздуха - температура, измеренная на высоте 2 м над землей.
Td - Температура точки росы - температура, при понижении до которой содержащийся в воздухе водяной пар достигнет насыщения.
f - Относительная влажность воздуха - влажноcть воздуха, измеренная на высоте 2 м над землей.
Te - Эффективная температура - температура, которую ощущает одетый по сезону человек в тени. Характеристика душности погоды. При расчете учитывается влияние влажности воздуха и скорости ветра на теплоощущения человека.
Tes - Эффективная температура на солнце - температура, которую ощущает человек, с поправкой на солнечный нагрев. Характеристика знойности погоды. Зависит от высоты солнца над горизонтом, облачности и скорости ветра. Ночью, в пасмурную погоду, а также при ветре 12 м/с и более поправка равна нулю.
P - Атмосферное давление - приведенное к уровню моря атмосферное давление.
Po - Атмосферное давление - измеренное на уровне метеостанции атмосферное давление.
Tmin - Минимальная температура - минимум температуры воздуха на высоте 2 м над землей.
Tmax - Максимальная температура - максимум температуры воздуха на высоте 2 м над землей.
R - Количество осадков - Количество выпавших осадков за период времени, мм. При наведении курсора мыши на число - период времени, за который выпало указанное количество осадков.
R24 - Количество осадков - Количество выпавших осадков за 24 часа, мм.
S - Снежный покров - Высота снежного покрова, см. При наведении курсора мыши на число - состояние снежного покрова и степень покрытия местности в баллах.